Tracking 33744 objects as of 12-Apr-2026
HD Live streaming from Space Station
objects crossing your sky now

STARLINK-31952

Track STARLINK-31952 now!
10-day predictions
STARLINK-31952 is classified as:


NORAD ID: 59867
Int'l Code: 2024-098K
Perigee: 489.2 km
Apogee: 491.2 km
Inclination: 43.0 °
Period: 94.3 minutes
Semi major axis: 6861 km
RCS: Unknown
Launch date: May 24, 2024
Source: United States (US)
Launch site: AIR FORCE EASTERN TEST RANGE (AFETR)
Your satellite tracking list
Your tracking list is empty




NASA's NSSDC Master Catalog

Two Line Element Set (TLE):
1 59867U 24098K   26102.22719121 -.00000173  00000-0  32294-5 0  9991
2 59867  43.0029  88.7308 0001388 243.1392 116.9318 15.27575292106970
Source of the keplerian elements: AFSPC